SXM-8

Last updated on Mon Sep 15 2025 00:02:50 GMT+0000 (Coordinated Universal Time)

1 48838U 21049A 25257.05191388 -.00000216 00000+0 00000+0 0 9991 2 48838 0.0186 67.3237 0004252 329.0386 250.4376 1.00270910 15823
UTC large
Height (km)
Speed (km/s)
/
Latitude / Longitude
Inclination (degrees)
Orbital Period (minutes)
Azimuth
Elevation
Range (km)
Doppler Factor

Next 0 passes for location: London (51.5072 / 0.1276)

Sorry there are no passes over London.